Regional Weather Roundup
Issued by NWS Charleston, WV

Home | Current Version | Previous Version | Graphics & Text | Print | Product List | Glossary On
Versions: 1 2 3 4 5 6 7 8 9 10 11 12 13 14 15 16 17 18 19 20 21 22 23 24 25 26 27 28 29 30 31 32 33 34 35 36 37 38 39 40 41 42 43 44 45 46 47 48
000
ASUS41 KRLX 011810
RWRRLX
West Virginia Regional Weather Roundup
National Weather Service Charleston WV
200 PM EDT WED OCT 01 2014

Note: "fair" indicates few or no clouds below 12,000 feet with no
significant weather and/or obstructions to visibility.

WVZ003-011900-
Northern Panhandle of West Virginia

CITY           SKY/WX    TMP DP  RH WIND       PRES   REMARKS
WHEELING       CLOUDY    66  56  70 VRB3      30.03F
$$

WVZ009-011900-
Northwest West Virginia

CITY           SKY/WX    TMP DP  RH WIND       PRES   REMARKS
PARKERSBURG    MOSUNNY   70  51  51 CALM      30.04F
$$

WVZ006-011900-
Western West Virginia

CITY           SKY/WX    TMP DP  RH WIND       PRES   REMARKS
HUNTINGTON     PTSUNNY   72  61  68 CALM      30.01F
$$

WVZ015-011900-
West Central West Virginia

CITY           SKY/WX    TMP DP  RH WIND       PRES   REMARKS
CHARLESTON     CLOUDY    66  59  78 N3        30.03F
$$

WVZ031-011900-
North Central West Virginia

CITY           SKY/WX    TMP DP  RH WIND       PRES   REMARKS
CLARKSBURG     PTSUNNY   64  57  78 CALM      30.03F
MORGANTOWN     CLOUDY    63  56  78 VRB3      30.06S
$$

WVZ035-042-045-011900-
South Central West Virginia

CITY           SKY/WX    TMP DP  RH WIND       PRES   REMARKS
BECKLEY        PTSUNNY   74  51  44 W8        30.05F
BLUEFIELD      MOSUNNY   76  50  40 W14       30.09S
LEWISBURG      MOSUNNY   75  53  46 SW5       30.04F
$$

WVZ047-011900-
Northern Mountains of West Virginia

CITY           SKY/WX    TMP DP  RH WIND       PRES   REMARKS
ELKINS         MOSUNNY   74  52  46 NW12      30.02F
$$

WVZ052-011900-
Eastern Panhandle of West Virginia

CITY           SKY/WX    TMP DP  RH WIND       PRES   REMARKS
MARTINSBURG    CLOUDY    68  59  73 NE6       30.05F
PETERSBURG     CLOUDY   N/A N/A N/A CALM      30.04F
$$



USA.gov is the U.S. government's official web portal to all federal, state and local government web resources and services.